Regional Weather Roundup
Issued by NWS

Home | Current Version | Previous Version | Text Only | Print | Product List | Glossary On
Versions: 1 2 3 4 5 6 7 8 9 10 11 12 13 14 15 16 17 18 19 20 21 22 23 24 25 26 27 28 29 30 31 32 33 34 35 36 37 38 39 40 41 42 43 44 45 46 47 48 49 50
000
ASHW40 PHFO 280843
RWRHI

WEATHER ROUNDUP FOR HAWAII
NATIONAL WEATHER SERVICE HONOLULU HI
1000 PM HST SAT DEC 27 2014

THIS IS AN AUTOMATED REPORT THAT HAS NOT BEEN QUALITY CONTROLLED.

NOTE..."FAIR" INDICATES FEW OR NO CLOUDS BELOW 12,000 FEET WITH NO
SIGNIFICANT WEATHER AND/OR OBSTRUCTIONS TO VISIBILITY.

* - THESE SITES REPORT LIMITED FIELDS

HIZ001>004-280900-
KAUAI-NIIHAU-

CITY           SKY/WX    TMP DP  RH WIND       PRES   REMARKS
LIHUE APT      CLEAR     66  54  65 NW5       29.97S
PORT ALLEN*      N/A     59 N/A N/A N7          N/A
POIPU*           N/A     68 N/A N/A VRB7G16     N/A
PRINCEVILLE*     N/A     68 N/A N/A MISG        N/A
KOKOLE POINT*    N/A     70 N/A N/A MISG        N/A
MOLOAA DAIRY*  NOT AVBL
WAIMEA HTS*      N/A     66  46  48 N3G9        N/A
PUU OPAE*        N/A     57  48  72 CALM        N/A
PUU LUA*       NOT AVBL
MAKAHA RIDGE*  NOT AVBL
$$

HIZ005>011-280900-
OAHU-

CITY           SKY/WX    TMP DP  RH WIND       PRES   REMARKS
HONOLULU       PTCLDY    68  57  68 NW7       29.94R
KALAELOA       CLEAR     67  55  65 CALM      29.96R
KANEOHE MCB    CLOUDY    71  58  63 N12       29.95R
WHEELER FIELD  MOCLDY    64  56  74 NW2       29.95S
BELLOWS*         N/A    N/A N/A N/A N2G14       N/A
KAHUKU*          N/A    N/A N/A N/A NW3G12      N/A
WHEELER*       NOT AVBL
WAIANAE HARBOR NOT AVBL
DILLINGHAM*      N/A     68  55  64 NW1G8       N/A
KAHUKU TRN*      N/A     68  55  64 N3G12       N/A
KAWAILOA*        N/A     63  55  77 N6          N/A
KII*             N/A     72  55  56 NW9G18      N/A
MAKUA RANGE*     N/A     70  54  56 E3G12       N/A
OAHU FOREST NW   N/A     57 -17   4 CALM        N/A
SCHOFIELD BRK*   N/A     63  55  77 CALM        N/A
SCHOFIELD S*   NOT AVBL
WAIANAE VLY*     N/A     64  55  72 W2G9        N/A
KUAOKALA*        N/A     66  54  63 CALM        N/A
HONOULIUULI*   NOT AVBL
MOKUOLOE IS*     N/A    N/A N/A N/A MISG        N/A
PALEHUA*         N/A     70  54  56 CALM        N/A
WAIAWA PHB*    NOT AVBL
$$

HIZ012>013-280900-
MOLOKAI-

CITY           SKY/WX    TMP DP  RH WIND       PRES   REMARKS
MOLOKAI AIRPT  MOCLDY    68  56  65 N8        29.94F
KALAUPAPA      NOT AVBL
MAKAPULAPAI*     N/A     70  57  64 N7G13       N/A
MOLOKAI 1*       N/A     57  55  94 N8G20       N/A
PUU ALII*        N/A     51  51 100 SE1         N/A
$$

HIZ016-280900-
KAHOOLAWE-

CITY           SKY/WX    TMP DP  RH WIND       PRES   REMARKS
KAHOOLAWE*       N/A     64 N/A N/A VRB13G21    N/A
HAKIOAWA*        N/A     66  59  78 MISG      30.34F
HONOKANAIA*      N/A     68  56  64 N5G15     29.93F
KANELOA*         N/A     70  59  68 NE13G28   29.14R
KEALIALALO*    NOT AVBL
LUA MAKIKA*    NOT AVBL
$$

HIZ014>015-280900-
LANAI-

CITY           SKY/WX    TMP DP  RH WIND       PRES   REMARKS
LANAI CITY     FAIR      61  55  80 N9        29.97S
LANAI 1*         N/A     63  57  82 N10G24      N/A
$$

HIZ017>028-280900-
MAUI-

CITY           SKY/WX    TMP DP  RH WIND       PRES   REMARKS
KAHULUI        PTCLDY    71  55  56 N12       29.94R
KAPALUA-W MAUI NOT AVBL
HANA AIRPORT   PTCLDY    66  55  68 W8        29.95S
HANA*            N/A     68 N/A N/A W6          N/A
HALEAKALA SUMM   N/A     43 -11  10 N55         N/A
MAALAEA BAY*   NOT AVBL
HALEAKALA*     NOT AVBL
KAUPO GAP*       N/A     54  48  82 NE2G8       N/A
KULA 1*          N/A     50   6  16 CALM        N/A
$$

HIZ023>026-280900-
BIG ISLAND OF HAWAII COAST AND LOWER SLOPES-

CITY           SKY/WX    TMP DP  RH WIND       PRES   REMARKS
KAILUA KONA    CLEAR     73  55  53 N22       29.88R
HILO           PTCLDY    71  58  63 NW13      29.89R
HONOKAA*       NOT AVBL
KAWAIHAE MWT*    N/A     72 N/A N/A SE5         N/A
KAWAIHAE*        N/A     72 N/A N/A VRB3        N/A
SOUTH POINT*     N/A     68 N/A N/A NW2         N/A
UPOLU AIRPORT*   N/A    N/A N/A N/A N17         N/A
KAMUELA*       SUNNY     55  54  94 NE12      29.99S
HAKALAU*         N/A    N/A N/A N/A W3          N/A
KALOKO-HONOKO*   N/A     66  55  68 NE6       29.87R
PALI 2*          N/A     61  59  94 NW6         N/A
KEALAKOMO*       N/A     68  57  68 N13G21      N/A
KAUPULEHU*       N/A     64  36  34 E8          N/A
KAPAPALA*        N/A     62  61  95 CALM        N/A
LOWER KAHUKU*    N/A     57  57 100 N1          N/A
PUHE CS*       NOT AVBL
PUHO CS*         N/A     69  57  65 E3G9        N/A
PTA KEAMUKU*     N/A    N/A N/A N/A CALM        N/A
WAIKOLOA*        N/A     66  52  59 E17G24      N/A
$$

HIZ027>028-280900-
BIG ISLAND OF HAWAII INTERIOR AND SUMMMITS-

CITY           SKY/WX    TMP DP  RH WIND       PRES   REMARKS
BRADSHAW FIELD CLOUDY    44  13  29 SE6       30.18S
MK VISITOR CEN NOT AVBL
MAUNA KEA*       N/A     28 -17  13 N38         N/A  WCI  11
MAUNA LOA*       N/A     41 -40   2 MISG        N/A
MAUNA LOA 1*   NOT AVBL
PTA KIPUKA*      N/A    N/A N/A N/A E3          N/A
PTA RANGE 17*    N/A     54 -13   6 W7G13       N/A
PTA WEST*        N/A    N/A N/A N/A S8          N/A
NENE CABIN*      N/A    N/A N/A N/A N3          N/A
AHUMOA*          N/A     48 -11   8 NE12G17     N/A
PTA PORTABLE*  NOT AVBL
PUU MALI*      NOT AVBL
$$

HIC003-280900-
NORTHWEST ISLANDS-

CITY           SKY/WX    TMP DP  RH WIND       PRES   REMARKS
MIDWAY ISLAND  CLEAR     73  68  83 W14       29.98S
MIDWAY NOS*    NOT AVBL
FRENCH FRIGATE NOT AVBL
$$

PHZ110>124-180-280900-
BUOY REPORTS

STATION/POSITION TIME  TEMP    WIND        PRES    WAVE   SWELL
                       AIR SEA DIR/SP/G            HT/PER HT/DIR
                 (UTC) (F)     (DEG/KT/KT) (MB)    (FT/S) (FT/D)
BUOY 51001       NOT AVBL
BUOY 51101       0800   70 76  340/ 10/ 14 1015.5R   9/13   8/300
BUOY 51100       0800   71 74  350/ 16/ 17 1011.2R
BUOY 51003       0800   74 78   30/ 16/ 17 1013.8F   8/13   7
BUOY 51004       0705   76 78   10/  8/ 10 1011.6S   6/10   5/350
BARBERS PT BUOY  NOT AVBL
WAIMEA BAY BUOY  0800      77                N/A    10/13   7/320
KAILUA BAY BUOY  0800      76                N/A     7/ 9   3/ 10
LANAI BUOY       0800      77                N/A     4/13   2/250
BARBERS PT 2     0800      77                N/A     5/13   3/300
PAUWELA MAUI     0800      77                N/A     8/14   5/320
HILO             0800      78                N/A     9/ 9   3/340
KANEOHE BAY BUOY 0800      76                N/A     6/ 9   3
HANALEI KAUAI    NOT AVBL
KAHULUI HARBOR   0800   73 77  350/ 13/ 16 1013.4F
HONOLULU HARBOR  0800   70     320/  5/  7 1014.2R
KILO NALU        NOT AVBL
HILO HARBOR      0800   72     300/ 11/ 16 1011.8R
MOKUOLOE         0800   73 75  360/ 11/ 12 1014.2R
NAWILIWILI       0800      77                N/A
WHOTS BUOY       NOT AVBL
BUOY 51028       NOT AVBL
$$

......................KEY........................................
  SKY/WX - SKY CONDITIONS/PRESENT WEATHER
  TMP    - TEMPERATURE IN FAHRENHEIT
  DWPT   - DEWPOINT IN FAHRENHEIT
  RH     - RELATIVE HUMIDITY IN PERCENT
  WIND   - DIRECTION AND SPEED /MPH FOR ISLANDS...KTS FOR BUOYS/
  PRES   - MEAN SEA LEVEL PRESSURE IN INCHES OF HG
  VSB    - VISIBILITY IN MILES
  HX     - HEAT INDEX
  WCI    - WIND CHILL INDEX
  VRB    - VARIABLE WIND DIRECTION
  N/A    - NOT AVAILABLE


USA.gov is the U.S. government's official web portal to all federal, state and local government web resources and services.